User: anonymous   Login
Location: Newark
(41.9364°N, 2.8061°E)
Time: 16:54:42
(UTC+00:00)
Language:

Hubble Space Telescope - Orbit

View from above orbital plane
View from above orbital plane
View from above satellite
View from above satellite

Ground track
Ground track

The orbit data is extracted from the following two-line orbital elements,

1 20580U 90037B   22333.90109122  .00002081  00000-0  10973-3 0  9995
2 20580  28.4683 151.9792 0002712  28.0428  85.6470 15.11323726591521
Epoch (UTC): 29 November 2022 21:37:34
Eccentricity: 0.0002712
inclination: 28.4683°
perigee height: 530 km
apogee height: 534 km
right ascension of ascending node: 151.9792°
argument of perigee: 28.0428°
revolutions per day: 15.11323726
mean anomaly at epoch: 85.6470°
orbit number at epoch: 59152

The dashed part of the orbit path shows where the satellite is in the earth's shadow,  

DLR